Weather History for KMWH - April, 2011

Change the Weather History Date:

Sunday, April 10, 2011

  Actual Average Record
Temperature  
Mean Temperature 50 °F 49 °F  
Max Temperature 63 °F 62 °F 78 °F (1985)
Min Temperature 36 °F 36 °F 28 °F (1999)
Degree Days  
Heating Degree Days 15 16  
Month to date heating degree days 193 170  
Since 1 July heating degree days 5491 5342  
Cooling Degree Days 0 0  
Month to date cooling degree days 0 0  
Year to date cooling degree days 0 0  
Moisture  
Dew Point 33 °F    
Average Humidity 59    
Maximum Humidity 82    
Minimum Humidity 35    
Precipitation  
Precipitation 0.00 in 0.03 in 0.33 in (1998)
Month to date precipitation 0.04 0.25  
Year to date precipitation 1.80 2.97  
Sea Level Pressure  
Sea Level Pressure 29.99 in    
Wind  
Wind Speed 11 mph (South)    
Max Wind Speed 20 mph    
Max Gust Speed 26 mph    
Visibility 10 miles    
Events      
T = Trace of Precipitation, MM = Missing Value Source: NWS Daily Summary

Daily Weather History Graph

Daily Weather History Graph

Search for Another Location

Airport or City:

Trip Planner

Search our weather history database for the weather conditions in past years. The results will help you decide how hot, cold, wet, or windy it might be!

Date:

Astronomy

Apr. 10, 2011 Rise Set
Actual Time 6:18 AM PDT 7:39 PM PDT
Civil Twilight 5:47 AM PDT 8:10 PM PDT
Nautical Twilight 5:09 AM PDT 8:49 PM PDT
Astronomical Twilight 4:28 AM PDT 9:30 PM PDT
Moon 10:50 AM PDT (4/10) 1:56 AM PDT (4/10)
Length of Visible Light 14h 23m
Length of Day
13h 20m
Waxing Crescent, 43% of the Moon is Illuminated
Apr 10
Waxing Crescent
Apr 11
First Quarter
Apr 17
Full
Apr 24
Last Quarter
May 2
New

Hourly Weather History & Observations

Time (PDT) Temp. Windchill Dew Point Humidity Pressure Visibility Wind Dir Wind Speed Gust Speed Precip Events Conditions
12:52 AM 43.0 °F 38.8 °F 30.9 °F 62% 29.89 in 10.0 mi SW 6.9 mph - N/A   Clear
1:52 AM 42.1 °F 37.1 °F 30.9 °F 65% 29.91 in 10.0 mi SW 8.1 mph - N/A   Clear
2:52 AM 41.0 °F 37.1 °F 30.0 °F 65% 29.92 in 10.0 mi SW 5.8 mph - N/A   Clear
3:52 AM 37.9 °F 34.4 °F 30.0 °F 73% 29.94 in 10.0 mi South 4.6 mph - N/A   Clear
4:52 AM 36.0 °F 31.1 °F 30.0 °F 79% 29.95 in 10.0 mi ESE 5.8 mph - N/A   Mostly Cloudy
5:52 AM 37.9 °F 33.5 °F 32.0 °F 79% 29.96 in 10.0 mi SSE 5.8 mph - N/A   Overcast
6:52 AM 41.0 °F 37.1 °F 35.1 °F 79% 29.98 in 10.0 mi SSE 5.8 mph - N/A   Overcast
7:52 AM 44.1 °F 38.6 °F 35.1 °F 71% 30.00 in 10.0 mi SSE 10.4 mph - N/A   Overcast
8:52 AM 46.9 °F - 36.0 °F 66% 30.01 in 10.0 mi SE 5.8 mph - N/A   Overcast
9:52 AM 50.0 °F - 37.0 °F 61% 30.02 in 10.0 mi South 9.2 mph - N/A   Clear
10:52 AM 52.0 °F - 35.1 °F 53% 30.04 in 10.0 mi South 9.2 mph - N/A   Overcast
11:52 AM 55.0 °F - 33.1 °F 43% 30.04 in 10.0 mi SW 9.2 mph - N/A   Partly Cloudy
12:52 PM 57.0 °F - 34.0 °F 42% 30.04 in 10.0 mi South 13.8 mph - N/A   Overcast
1:52 PM 59.0 °F - 34.0 °F 39% 30.03 in 10.0 mi South 13.8 mph - N/A   Overcast
2:52 PM 62.1 °F - 35.1 °F 37% 30.03 in 10.0 mi South 13.8 mph 19.6 mph N/A   Clear
3:52 PM 62.1 °F - 36.0 °F 38% 30.01 in 10.0 mi South 11.5 mph - N/A   Partly Cloudy
4:52 PM 60.1 °F - 37.0 °F 42% 30.01 in 10.0 mi South 17.3 mph 24.2 mph N/A   Mostly Cloudy
5:52 PM 60.1 °F - 37.0 °F 42% 30.01 in 10.0 mi South 15.0 mph - N/A   Mostly Cloudy
6:52 PM 57.9 °F - 33.1 °F 39% 30.00 in 10.0 mi SSW 18.4 mph 25.3 mph N/A   Overcast
7:52 PM 55.9 °F - 30.0 °F 37% 30.00 in 10.0 mi SSW 15.0 mph 20.7 mph N/A   Scattered Clouds
8:52 PM 55.9 °F - 28.0 °F 34% 30.00 in 10.0 mi SW 12.7 mph - N/A   Scattered Clouds
9:52 PM 55.0 °F - 30.0 °F 38% 30.00 in 10.0 mi SSW 11.5 mph - N/A   Overcast
10:52 PM 54.0 °F - 32.0 °F 43% 29.99 in 10.0 mi SSW 10.4 mph - N/A   Mostly Cloudy
11:52 PM 53.1 °F - 33.1 °F 47% 29.99 in 10.0 mi SW 9.2 mph - N/A   Overcast